GRT20 KHND-KVGT

Flight info

Callsign GRT20
Flight time 0h 21m
Altitude 5500
Route LAS
Aircraft A320/M-SDE3FGHIRWY/LB1

Departure

Time 2026-05-04 00:12
Airport Henderson Executive Airport (KHND)

Arrival

Time 2026-05-04 00:33
Airport North Las Vegas Airport (KVGT)
Time Latitude Longitude Altitude Speed Heading
2026-05-03 23:51 35.97817 -115.13804 2423 ft 0 kts 91°
2026-05-04 00:03 35.97846 -115.13724 2424 ft 21 kts 46°
2026-05-04 00:03 35.97987 -115.13687 2419 ft 22 kts 358°
2026-05-04 00:04 35.98091 -115.13650 2411 ft 6 kts 75°
2026-05-04 00:04 35.98084 -115.13619 2411 ft 2 kts 95°
2026-05-04 00:04 35.98084 -115.13618 2411 ft 0 kts 95°
2026-05-04 00:11 35.98061 -115.13537 2413 ft 16 kts 141°
2026-05-04 00:11 35.97942 -115.13539 2421 ft 36 kts 180°
2026-05-04 00:12 35.97434 -115.13542 2452 ft 107 kts 181°
2026-05-04 00:12 35.96502 -115.13553 2510 ft 155 kts 183°
2026-05-04 00:12 35.95451 -115.13587 3335 ft 148 kts 187°
2026-05-04 00:12 35.94435 -115.13745 4062 ft 147 kts 190°
2026-05-04 00:13 35.93359 -115.13960 4305 ft 167 kts 191°
2026-05-04 00:13 35.92134 -115.14210 4475 ft 191 kts 190°
2026-05-04 00:13 35.90730 -115.14496 4726 ft 218 kts 192°
2026-05-04 00:13 35.89147 -115.14806 5114 ft 242 kts 191°
2026-05-04 00:14 35.87442 -115.15156 5747 ft 254 kts 191°
2026-05-04 00:14 35.85679 -115.15537 6536 ft 260 kts 191°
2026-05-04 00:14 35.83875 -115.15716 7362 ft 264 kts 174°
2026-05-04 00:14 35.82142 -115.14904 8153 ft 275 kts 148°
2026-05-04 00:15 35.80851 -115.13122 8997 ft 287 kts 122°
2026-05-04 00:15 35.80266 -115.10723 9585 ft 300 kts 98°
2026-05-04 00:15 35.80526 -115.08148 9750 ft 310 kts 73°
2026-05-04 00:15 35.81644 -115.05876 9794 ft 315 kts 49°
2026-05-04 00:16 35.83402 -115.04271 9797 ft 317 kts 25°
2026-05-04 00:16 35.85527 -115.03592 9799 ft 316 kts
2026-05-04 00:16 35.87685 -115.03932 9796 ft 313 kts 338°
2026-05-04 00:16 35.89654 -115.05023 9802 ft 311 kts 330°
2026-05-04 00:17 35.91606 -115.06192 9805 ft 312 kts 331°
2026-05-04 00:17 35.93558 -115.07361 9804 ft 312 kts 330°
2026-05-04 00:17 35.95516 -115.08531 9804 ft 313 kts 330°
2026-05-04 00:17 35.97471 -115.09699 9804 ft 312 kts 331°
2026-05-04 00:18 35.99424 -115.10866 9800 ft 311 kts 331°
2026-05-04 00:18 36.01375 -115.12034 9808 ft 313 kts 331°
2026-05-04 00:18 36.03335 -115.13209 9785 ft 314 kts 330°
2026-05-04 00:18 36.05334 -115.14305 9782 ft 316 kts 342°
2026-05-04 00:19 36.07513 -115.14610 9782 ft 316 kts 359°
2026-05-04 00:19 36.09707 -115.14554 9773 ft 315 kts
2026-05-04 00:19 36.11903 -115.14466 9770 ft 315 kts
2026-05-04 00:19 36.14076 -115.14372 9769 ft 305 kts
2026-05-04 00:20 36.16107 -115.14278 9757 ft 279 kts
2026-05-04 00:20 36.17966 -115.14185 9761 ft 257 kts
2026-05-04 00:20 36.19695 -115.14094 9759 ft 242 kts
2026-05-04 00:20 36.21359 -115.14009 9762 ft 237 kts
2026-05-04 00:21 36.23004 -115.13921 9767 ft 236 kts
2026-05-04 00:21 36.24650 -115.13832 9767 ft 237 kts
2026-05-04 00:21 36.26294 -115.13744 9768 ft 238 kts
2026-05-04 00:21 36.27947 -115.13653 9766 ft 237 kts
2026-05-04 00:22 36.29595 -115.13567 9766 ft 237 kts
2026-05-04 00:22 36.31245 -115.13487 9713 ft 237 kts
2026-05-04 00:22 36.32897 -115.13403 9708 ft 237 kts
2026-05-04 00:22 36.34549 -115.13316 9709 ft 238 kts
2026-05-04 00:23 36.36199 -115.13258 9712 ft 237 kts 353°
2026-05-04 00:23 36.37724 -115.13859 9707 ft 227 kts 318°
2026-05-04 00:23 36.38689 -115.15297 9709 ft 213 kts 289°
2026-05-04 00:23 36.39228 -115.17001 9742 ft 212 kts 282°
2026-05-04 00:24 36.39684 -115.18750 9747 ft 214 kts 281°
2026-05-04 00:24 36.40128 -115.20515 9741 ft 214 kts 281°
2026-05-04 00:24 36.40570 -115.22272 9681 ft 213 kts 281°
2026-05-04 00:24 36.41011 -115.24021 9499 ft 212 kts 281°
2026-05-04 00:25 36.41453 -115.25776 9498 ft 214 kts 281°
2026-05-04 00:25 36.41895 -115.27536 9494 ft 213 kts 281°
2026-05-04 00:25 36.42338 -115.29293 9499 ft 213 kts 281°
2026-05-04 00:25 36.42773 -115.31054 9495 ft 213 kts 279°
2026-05-04 00:26 36.43051 -115.32838 9496 ft 210 kts 271°
2026-05-04 00:26 36.43243 -115.34628 9497 ft 209 kts 271°
2026-05-04 00:26 36.43420 -115.36429 9497 ft 210 kts 270°
2026-05-04 00:26 36.43599 -115.38233 9499 ft 211 kts 271°
2026-05-04 00:27 36.43778 -115.40035 9514 ft 210 kts 271°
2026-05-04 00:27 36.43669 -115.41783 9518 ft 198 kts 240°
2026-05-04 00:27 36.42825 -115.43027 9319 ft 187 kts 205°
2026-05-04 00:27 36.41577 -115.43307 8972 ft 187 kts 169°
2026-05-04 00:28 36.40366 -115.42665 8618 ft 192 kts 153°
2026-05-04 00:28 36.39222 -115.41794 8293 ft 193 kts 151°
2026-05-04 00:28 36.38121 -115.40833 7990 ft 195 kts 145°
2026-05-04 00:28 36.37108 -115.39705 7649 ft 199 kts 141°
2026-05-04 00:29 36.36103 -115.38469 7140 ft 206 kts 139°
2026-05-04 00:29 36.35099 -115.37199 6643 ft 207 kts 139°
2026-05-04 00:29 36.34083 -115.35910 6111 ft 211 kts 140°
2026-05-04 00:29 36.33051 -115.34600 5638 ft 211 kts 140°
2026-05-04 00:30 36.32049 -115.33325 5316 ft 203 kts 139°
2026-05-04 00:30 36.31078 -115.32092 5040 ft 198 kts 140°
2026-05-04 00:30 36.30117 -115.30876 4775 ft 198 kts 139°
2026-05-04 00:30 36.29148 -115.29648 4505 ft 199 kts 139°
2026-05-04 00:31 36.28496 -115.28822 4325 ft 198 kts 140°
2026-05-04 00:31 36.27568 -115.27644 4119 ft 186 kts 138°
2026-05-04 00:31 36.26686 -115.26526 3834 ft 177 kts 140°
2026-05-04 00:31 36.25857 -115.25475 3623 ft 164 kts 138°
2026-05-04 00:32 36.25086 -115.24500 3390 ft 152 kts 137°
2026-05-04 00:32 36.24372 -115.23597 3178 ft 143 kts 138°
2026-05-04 00:32 36.23684 -115.22728 2974 ft 141 kts 140°
2026-05-04 00:32 36.22996 -115.21860 2771 ft 143 kts 139°
2026-05-04 00:33 36.22297 -115.20978 2559 ft 143 kts 140°
2026-05-04 00:33 36.20891 -115.19205 2182 ft 128 kts 136°
2026-05-04 00:33 36.20577 -115.18803 2161 ft 34 kts 133°
2026-05-04 00:34 36.20488 -115.18741 2152 ft 8 kts 210°
2026-05-04 00:34 36.20447 -115.18793 2154 ft 9 kts 250°
2026-05-04 00:34 36.20473 -115.18840 2158 ft 8 kts 315°
2026-05-04 00:34 36.20531 -115.18914 2159 ft 14 kts 313°
2026-05-04 00:35 36.20590 -115.18991 2162 ft 11 kts 313°
2026-05-04 00:35 36.20640 -115.19054 2170 ft 12 kts 316°
2026-05-04 00:35 36.20715 -115.19151 2177 ft 18 kts 313°
2026-05-04 00:35 36.20797 -115.19252 2185 ft 16 kts 313°
2026-05-04 00:36 36.20876 -115.19348 2185 ft 15 kts 315°
2026-05-04 00:36 36.20896 -115.19422 2190 ft 0 kts 222°
2026-05-04 00:37 36.20882 -115.19438 2190 ft 11 kts 224°
2026-05-04 00:38 36.20796 -115.19544 2192 ft 18 kts 227°
2026-05-04 00:38 36.20822 -115.19640 2194 ft 13 kts 323°
2026-05-04 00:38 36.20884 -115.19713 2195 ft 12 kts 315°
2026-05-04 00:38 36.20937 -115.19779 2197 ft 9 kts 314°
2026-05-04 00:39 36.20951 -115.19850 2198 ft 12 kts 240°
2026-05-04 00:39 36.20928 -115.19874 2200 ft 0 kts 221°